This is the latest recevied weather packets stored in our database for station/object IR9AK-10. If no packets are shown the sender has not sent any weather packets the latest 10 day(s).
| Time | Temp. | Humidity | Pressure | Rain* | Wind** | Luminosity | Snow |
|---|---|---|---|---|---|---|---|
| 1788162768 | 40.56° C | 32% | 1060 hPa | - | - | - | - |
| 1788162169 | 40.56° C | 32% | 1059.9 hPa | - | - | - | - |
| 1788161570 | 40.56° C | 31% | 1059.8 hPa | - | - | - | - |
| 1788160972 | 40.56° C | 31% | 1059.9 hPa | - | - | - | - |
| 1788160373 | 40.56° C | 27% | 1059.8 hPa | - | - | - | - |
| 1788159774 | 40.56° C | 26% | 1059.7 hPa | - | - | - | - |
| 1788159175 | 40.56° C | 28% | 1059.6 hPa | - | - | - | - |
| 1788158575 | 40.56° C | 30% | 1059.7 hPa | - | - | - | - |
| 1788157977 | 40.56° C | 31% | 1059.6 hPa | - | - | - | - |
| 1788157378 | 40.56° C | 31% | 1059.6 hPa | - | - | - | - |
| 1788156779 | 40.56° C | 32% | 1059.7 hPa | - | - | - | - |
| 1788156180 | 40° C | 32% | 1059.5 hPa | - | - | - | - |
| 1788155582 | 39.44° C | 32% | 1059.5 hPa | - | - | - | - |
| 1788154984 | 39.44° C | 33% | 1059.5 hPa | - | - | - | - |
| 1788154384 | 39.44° C | 34% | 1059.7 hPa | - | - | - | - |
| 1788153786 | 39.44° C | 35% | 1059.6 hPa | - | - | - | - |
| 1788153187 | 39.44° C | 36% | - | - | - | - | - |
| 1788152587 | 39.44° C | 38% | 1059.8 hPa | - | - | - | - |
| 1788151987 | 39.44° C | 39% | 1059.6 hPa | - | - | - | - |
| 1788151388 | 39.44° C | 39% | 1059.7 hPa | - | - | - | - |
| 1788150788 | 39.44° C | 39% | 1059.6 hPa | - | - | - | - |
| 1788150189 | 40° C | 51% | 1059.6 hPa | - | - | - | - |
| 1788149590 | 40° C | 38% | 1059.6 hPa | - | - | - | - |
| 1788148991 | 40° C | 38% | 1059.6 hPa | - | - | - | - |
| 1788148391 | 40° C | 39% | 1059.6 hPa | - | - | - | - |
* Rain since midnight (hover to see other rain measurements)
** Current wind speed in m/s (hover to see current wind gust speed)